This demonstration page uses our WeatherBlox Daily Observations layout. Learn more.

Left ArrowRight Arrow

Hourly Observations for December 28, 2018

Temp ( °F °C ) Dew Point ( °F °C ) Humidity (%) Winds ( mph kmh ) Pressure ( in mb ) Visibility ( mi km ) Precip ( " mm )
12:08 am 00:08 Windy with Snow Likely 18 -8 12 -11 79 79 NNW 23 37 30.03 1017 9 14 0.00 0.03
12:27 am 00:27 Windy with Snow Likely 18 -8 12 -11 79 79 NNW 20 31 30.06 1018 9 14 0.00 0.03
12:57 am 00:57 Windy with Snow Likely 18 -7.8 13 -10.6 81 81 NNW 23 37 30.01 1016 9 14 0.00 0.03
1:57 am 01:57 Windy with Snow Likely 18 -7.8 13 -10.6 81 81 NNW 25 41 30.04 1017 8 13 0.00 0.03
2:57 am 02:57 Windy with Snow Likely 16 -8.9 10 -12.2 77 77 NNW 20 31 30.08 1019 6 10 0.00 0.03
3:41 am 03:41 Windy with Snow Likely 16 -9 10 -12 79 79 NNW 25 41 30.18 1022 2 3 0.00 0.03
3:57 am 03:57 Windy with Snow Likely 16 -8.9 11 -11.7 80 80 NNW 21 33 30.10 1019 3 4 0.00 0.03
4:18 am 04:18 Windy with Snow Likely 16 -9 10 -12 79 79 NNW 23 37 30.21 1023 2 2 0.00 0.03
4:30 am 04:30 Windy with Snow Likely 16 -9 10 -12 79 79 NNW 22 35 30.21 1023 3 5 0.00 0.03
4:43 am 04:43 Windy with Snow Likely 16 -9 10 -12 79 79 NNW 24 39 30.21 1023 2 3 0.00 0.00
4:57 am 04:57 Windy with Snow Likely 15 -9.4 11 -11.7 84 84 NNW 26 43 30.11 1020 2 3 0.00 0.03
5:17 am 05:17 Windy with Snow Likely 16 -9 10 -12 79 79 NNW 22 35 30.21 1023 3 5 0.00 0.00
5:57 am 05:57 Cloudy with Light Snow 15 -9.4 12 -11.1 88 88 NNW 17 28 30.14 1021 3 5 0.00 0.03
6:43 am 06:43 Windy with Snow Likely 16 -9 12 -11 86 86 NNW 20 31 30.24 1024 3 4 0.00 0.00
6:57 am 06:57 Windy with Snow Likely 16 -8.9 12 -11.1 84 84 NNW 21 33 30.17 1022 2 3 0.00 0.03
7:15 am 07:15 Windy with Snow Likely 16 -9 12 -11 86 86 NNW 21 33 30.27 1025 3 5 0.00 0.00
7:49 am 07:49 Windy with Snow Likely 16 -9 12 -11 86 86 NNW 21 33 30.30 1026 2 3 0.00 0.00
7:57 am 07:57 Windy with Snow Likely 16 -8.9 12 -11.1 84 84 NNW 23 37 30.21 1023 2 2 0.00 0.03
8:30 am 08:30 Windy with Snow Likely 16 -9 12 -11 86 86 NNW 22 35 30.30 1026 2 3 0.00 0.03
8:43 am 08:43 Windy with Snow Likely 16 -9 12 -11 86 86 NNW 28 44 30.33 1027 1 2 0.00 0.03
8:57 am 08:57 Windy with Snow Likely 16 -8.9 12 -11.1 84 84 NNW 23 37 30.25 1024 1 2 0.00 0.03
9:17 am 09:17 Cloudy with Light Snow 18 -8 12 -11 79 79 NNW 16 26 30.33 1027 3 4 0.00 0.03
9:30 am 09:30 Windy with Snow Likely 18 -8 12 -11 79 79 NNW 22 35 30.33 1027 1 2 0.00 0.03
9:38 am 09:38 Mostly Cloudy with Light Snow 18 -8 12 -11 79 79 NNW 22 35 30.33 1027 2 2 0.00 0.03
9:40 am 09:40 Mostly Cloudy with Light Snow 18 -8 12 -11 79 79 NNW 24 39 30.33 1027 4 6 0.00 0.03
9:48 am 09:48 Mostly Cloudy with Light Snow 16 -9 10 -12 79 79 NNW 21 33 30.36 1028 5 8 0.00 0.03
9:52 am 09:52 Mostly Cloudy with Light Snow 18 -8 10 -12 73 73 NNW 22 35 30.36 1028 2 3 0.00 0.03
9:57 am 09:57 Mostly Cloudy with Light Snow 17 -8.3 11 -11.7 77 77 NNW 22 35 30.27 1025 2 3 0.00 0.03
10:01 am 10:01 Mostly Cloudy with Light Snow 18 -8 10 -12 73 73 NNW 28 44 30.36 1028 3 5 0.00 0.00
10:57 am 10:57 Cloudy 20 -6.7 11 -11.7 68 68 NNW 23 37 30.27 1025 10 16 0.00 0.03
11:57 am 11:57 Mostly Sunny 19 -7.2 10 -12.2 68 68 NNW 21 33 30.27 1025 10 16 0.00 0.00
12:57 pm 12:57 Sunny 20 -6.7 10 -12.2 65 65 NNW 22 35 30.27 1025 10 16 0.00 0.00
1:57 pm 13:57 Sunny 20 -6.7 9 -12.8 62 62 NNW 18 30 30.30 1026 10 16 0.00 0.00
2:57 pm 14:57 Cloudy 20 -6.7 8 -13.3 60 60 NNW 16 26 30.32 1027 10 16 0.00 0.00
3:57 pm 15:57 Cloudy 18 -7.8 8 -13.3 65 65 N 16 26 30.34 1027 10 16 0.00 0.00
4:57 pm 16:57 Sunny 16 -8.9 6 -14.4 65 65 NNW 15 24 30.35 1028 10 16 0.00 0.00
5:57 pm 17:57 Clear 12 -11.1 4 -15.6 70 70 NNW 7 11 30.38 1029 10 16 0.00 0.00
6:57 pm 18:57 Clear 10 -12.2 4 -15.6 76 76 NW 7 11 30.41 1030 10 16 0.00 0.00
7:57 pm 19:57 Clear 8 -13.3 3 -16.1 80 80 NNW 9 15 30.41 1030 10 16 0.00 0.00
8:57 pm 20:57 Clear 8 -13.3 2 -16.7 76 76 NW 9 15 30.42 1030 10 16 0.00 0.00
9:57 pm 21:57 Clear 6 -14.4 2 -16.7 83 83 NW 10 17 30.42 1030 10 16 0.00 0.00
10:57 pm 22:57 Clear 6 -14.4 1 -17.2 79 79 NW 8 13 30.41 1030 10 16 0.00 0.00

Powered by AerisWeather